When you browse on this site, cookies collect data to enhance your experience and personalize the content and advertising you see.
Visit our Privacy Policy to learn more. By continuing to use the site, you agree to this use of cookies and data.
  • In Hungary
  • List of Countries
  • For 7 days
  • Water Temperature
  • Weather Map
  • News
  • Weather Widgets
  • user-avatar
    Login

    Hourly Weather Dzhizan

    Today, 21 November, Thursday

    Time Temperature Precipitation Wind Pressure Humidity
    00:00 +31°C° 0 mm 3 mps 758 mmHg 64%
    01:00 +31°C° 0 mm 3 mps 757 mmHg 65%
    02:00 +31°C° 0 mm 3 mps 757 mmHg 66%
    03:00 +30°C° 0 mm 3 mps 756 mmHg 67%
    04:00 +30°C° 0 mm 3 mps 757 mmHg 68%
    05:00 +30°C° 0 mm 2 mps 757 mmHg 68%
    06:00 +30°C° 0 mm 2 mps 758 mmHg 69%
    07:00 +31°C° 0.3 mm 2 mps 758 mmHg 65%
    08:00 +32°C° 0.3 mm 2 mps 758 mmHg 62%
    09:00 +32°C° 0.3 mm 2 mps 758 mmHg 58%
    10:00 +34°C° 0 mm 3 mps 758 mmHg 56%
    11:00 +34°C° 0 mm 4 mps 758 mmHg 55%
    12:00 +35°C° 0 mm 4 mps 757 mmHg 53%
    13:00 +34°C° 0 mm 5 mps 757 mmHg 56%
    14:00 +34°C° 0 mm 6 mps 756 mmHg 58%
    15:00 +34°C° 0 mm 6 mps 756 mmHg 60%
    16:00 +33°C° 0 mm 5 mps 756 mmHg 62%
    17:00 +33°C° 0 mm 5 mps 756 mmHg 64%
    18:00 +32°C° 0 mm 4 mps 757 mmHg 66%
    19:00 +31°C° 0 mm 3 mps 757 mmHg 66%
    20:00 +31°C° 0 mm 2 mps 757 mmHg 65%
    21:00 +31°C° 0 mm 2 mps 758 mmHg 64%
    22:00 +31°C° 0 mm 1 mps 758 mmHg 64%
    23:00 +31°C° 0 mm 1 mps 758 mmHg 65%

    Tomorrow, 22 November, Friday

    Time Temperature Precipitation Wind Pressure Humidity
    00:00 +31°C° 0 mm 1 mps 758 mmHg 65%
    01:00 +30°C° 0 mm 1 mps 758 mmHg 66%
    02:00 +30°C° 0 mm 1 mps 758 mmHg 67%
    03:00 +28°C° 0 mm 0 mps 757 mmHg 68%
    04:00 +28°C° 0 mm 0 mps 758 mmHg 68%
    05:00 +28°C° 0 mm 0 mps 758 mmHg 69%
    06:00 +27°C° 0 mm 0 mps 759 mmHg 70%
    07:00 +28°C° 0 mm 0 mps 759 mmHg 66%
    08:00 +31°C° 0 mm 1 mps 759 mmHg 62%
    09:00 +32°C° 0 mm 1 mps 759 mmHg 58%
    10:00 +32°C° 0 mm 2 mps 759 mmHg 55%
    11:00 +34°C° 0 mm 3 mps 759 mmHg 52%
    12:00 +35°C° 0 mm 4 mps 759 mmHg 50%
    13:00 +34°C° 0 mm 5 mps 758 mmHg 54%
    14:00 +34°C° 0 mm 5 mps 757 mmHg 57%
    15:00 +34°C° 0 mm 6 mps 757 mmHg 61%
    16:00 +33°C° 0 mm 4 mps 757 mmHg 62%
    17:00 +33°C° 0 mm 3 mps 757 mmHg 63%
    18:00 +31°C° 0 mm 2 mps 757 mmHg 65%
    19:00 +31°C° 0 mm 2 mps 758 mmHg 64%
    20:00 +31°C° 0 mm 2 mps 758 mmHg 64%
    21:00 +31°C° 0 mm 2 mps 758 mmHg 63%
    22:00 +31°C° 0 mm 2 mps 759 mmHg 64%
    23:00 +31°C° 0 mm 2 mps 759 mmHg 64%

    Day after tomorrow, 23 November, Saturday

    Time Temperature Precipitation Wind Pressure Humidity
    00:00 +31°C° 0 mm 2 mps 759 mmHg 64%
    01:00 +30°C° 0 mm 2 mps 758 mmHg 65%
    02:00 +30°C° 0 mm 2 mps 758 mmHg 67%
    03:00 +30°C° 0 mm 2 mps 758 mmHg 68%
    04:00 +30°C° 0 mm 1 mps 758 mmHg 69%
    05:00 +29°C° 0 mm 1 mps 758 mmHg 71%
    06:00 +29°C° 0 mm 1 mps 759 mmHg 73%
    07:00 +30°C° 0 mm 1 mps 759 mmHg 70%
    08:00 +31°C° 0 mm 2 mps 759 mmHg 68%
    09:00 +31°C° 0 mm 2 mps 760 mmHg 65%
    10:00 +33°C° 0 mm 3 mps 759 mmHg 64%
    11:00 +34°C° 0 mm 4 mps 759 mmHg 62%
    12:00 +34°C° 0 mm 4 mps 759 mmHg 61%
    13:00 +34°C° 0 mm 5 mps 758 mmHg 62%
    14:00 +34°C° 0 mm 5 mps 758 mmHg 64%
    15:00 +33°C° 0 mm 5 mps 757 mmHg 65%
    16:00 +33°C° 0 mm 4 mps 757 mmHg 67%
    17:00 +32°C° 0 mm 4 mps 757 mmHg 69%
    18:00 +31°C° 0 mm 3 mps 757 mmHg 72%
    19:00 +31°C° 0 mm 2 mps 758 mmHg 71%
    20:00 +30°C° 0 mm 1 mps 758 mmHg 71%
    21:00 +30°C° 0 mm 1 mps 758 mmHg 71%
    22:00 +30°C° 0.1 mm 1 mps 758 mmHg 72%
    23:00 +30°C° 0.1 mm 1 mps 758 mmHg 73%

    24 November, Sunday

    Time Temperature Precipitation Wind Pressure Humidity
    00:00 +30°C° 0.1 mm 1 mps 758 mmHg 74%
    01:00 +30°C° 0 mm 2 mps 758 mmHg 75%
    02:00 +30°C° 0 mm 2 mps 758 mmHg 75%
    03:00 +30°C° 0 mm 3 mps 758 mmHg 76%
    04:00 +30°C° 0.3 mm 3 mps 758 mmHg 76%
    05:00 +30°C° 0.3 mm 3 mps 758 mmHg 77%
    06:00 +29°C° 0.3 mm 3 mps 759 mmHg 78%
    07:00 +30°C° 0.2 mm 3 mps 759 mmHg 76%
    08:00 +32°C° 0.2 mm 4 mps 759 mmHg 74%
    09:00 +32°C° 0.2 mm 4 mps 760 mmHg 71%
    10:00 +32°C° 0.1 mm 5 mps 760 mmHg 70%
    11:00 +33°C° 0.1 mm 5 mps 759 mmHg 69%
    12:00 +33°C° 0.1 mm 6 mps 759 mmHg 67%
    13:00 +33°C° 0.1 mm 6 mps 758 mmHg 67%
    14:00 +33°C° 0.1 mm 5 mps 758 mmHg 67%
    15:00 +33°C° 0.1 mm 5 mps 758 mmHg 67%
    16:00 +32°C° 0 mm 4 mps 758 mmHg 68%
    17:00 +31°C° 0 mm 3 mps 758 mmHg 69%
    18:00 +31°C° 0 mm 2 mps 758 mmHg 70%
    19:00 +30°C° 0 mm 2 mps 758 mmHg 70%
    20:00 +30°C° 0 mm 2 mps 759 mmHg 71%
    21:00 +30°C° 0 mm 1 mps 759 mmHg 71%
    22:00 +30°C° 0.2 mm 1 mps 759 mmHg 72%
    23:00 +30°C° 0.2 mm 1 mps 759 mmHg 73%

    25 November, Monday

    Time Temperature Precipitation Wind Pressure Humidity
    00:00 +30°C° 0.2 mm 1 mps 759 mmHg 73%
    01:00 +30°C° 0.1 mm 2 mps 759 mmHg 74%
    02:00 +30°C° 0.1 mm 3 mps 759 mmHg 74%
    03:00 +30°C° 0.1 mm 4 mps 758 mmHg 74%
    04:00 +29°C° 0.1 mm 4 mps 759 mmHg 75%
    05:00 +29°C° 0.1 mm 4 mps 759 mmHg 76%
    06:00 +29°C° 0.1 mm 5 mps 759 mmHg 78%
    07:00 +30°C° 0 mm 5 mps 759 mmHg 75%
    08:00 +30°C° 0 mm 5 mps 760 mmHg 73%
    09:00 +32°C° 0 mm 5 mps 760 mmHg 70%
    10:00 +32°C° 0 mm 5 mps 760 mmHg 68%
    11:00 +33°C° 0 mm 5 mps 759 mmHg 67%
    12:00 +33°C° 0 mm 5 mps 759 mmHg 65%
    13:00 +33°C° 0 mm 5 mps 758 mmHg 66%
    14:00 +33°C° 0 mm 5 mps 758 mmHg 66%
    15:00 +33°C° 0 mm 5 mps 758 mmHg 67%
    16:00 +32°C° 0 mm 4 mps 758 mmHg 68%
    17:00 +31°C° 0 mm 3 mps 758 mmHg 69%
    18:00 +30°C° 0 mm 3 mps 758 mmHg 71%
    19:00 +30°C° 0 mm 2 mps 759 mmHg 70%
    20:00 +30°C° 0 mm 1 mps 759 mmHg 70%
    21:00 +30°C° 0 mm 1 mps 759 mmHg 69%
    22:00 +30°C° 0 mm 1 mps 759 mmHg 70%
    23:00 +30°C° 0 mm 1 mps 759 mmHg 70%

    26 November, Tuesday

    Time Temperature Precipitation Wind Pressure Humidity
    00:00 +30°C° 0 mm 1 mps 759 mmHg 71%
    01:00 +30°C° 0.1 mm 2 mps 759 mmHg 72%
    02:00 +30°C° 0.1 mm 2 mps 759 mmHg 73%
    03:00 +30°C° 0.1 mm 3 mps 758 mmHg 74%
    04:00 +30°C° 0 mm 3 mps 759 mmHg 74%
    05:00 +30°C° 0 mm 3 mps 759 mmHg 75%
    06:00 +29°C° 0 mm 3 mps 759 mmHg 76%
    07:00 +30°C° 0.2 mm 3 mps 760 mmHg 74%
    08:00 +30°C° 0.2 mm 3 mps 760 mmHg 72%
    09:00 +31°C° 0.2 mm 3 mps 760 mmHg 70%
    10:00 +31°C° 0 mm 3 mps 760 mmHg 68%
    11:00 +33°C° 0 mm 4 mps 759 mmHg 66%
    12:00 +33°C° 0 mm 4 mps 759 mmHg 65%
    13:00 +33°C° 0 mm 4 mps 759 mmHg 66%
    14:00 +33°C° 0 mm 5 mps 758 mmHg 67%
    15:00 +33°C° 0 mm 5 mps 758 mmHg 68%
    16:00 +33°C° 0 mm 4 mps 758 mmHg 69%
    17:00 +31°C° 0 mm 3 mps 758 mmHg 71%
    18:00 +31°C° 0 mm 2 mps 758 mmHg 72%
    19:00 +31°C° 0 mm 2 mps 759 mmHg 72%
    20:00 +31°C° 0 mm 1 mps 759 mmHg 72%
    21:00 +30°C° 0 mm 1 mps 759 mmHg 72%
    22:00 +30°C° 0 mm 1 mps 759 mmHg 72%
    23:00 +30°C° 0 mm 2 mps 759 mmHg 73%
    Show more